Location: Kerberlivit
(48.2787°N, 4.5413°W)
Time: 09:11:05
(UTC+00:00)

Meteor 1-27 - Pass Details

Date: 18 February 2020
Orbit: 838 x 892 km, 81.3° (Epoch: 27 March)

Event Time Altitude Azimuth Distance (km) Brightness Sun altitude
Rises 05:19:08 0° 188° (S) 3,386 7.2 -20.9°
Reaches altitude 10° 05:21:32 10° 187° (S) 2,452 6.5 -20.5°
Maximum altitude 05:27:05 85° 101° (ESE) 848 4.2 -19.6°
Drops below altitude 10° 05:32:41 10° 13° (NNE) 2,466 6.8 -18.7°
Sets 05:35:06 0° 13° (NNE) 3,408 7.6 -18.3°
